TimeMDT,TemperatureF,Dew PointF,Humidity,Sea Level PressureIn,VisibilityMPH,Wind Direction,Wind SpeedMPH,Gust SpeedMPH,PrecipitationIn,Events,Conditions,WindDirDegrees,DateUTC
12:53 AM,61.0,33.1,35,30.06,10.0,South,10.4,18.4,N/A,,Clear,190,2011-10-02 06:53:00
1:53 AM,57.0,34.0,42,30.08,10.0,SW,4.6,-,N/A,,Clear,230,2011-10-02 07:53:00
2:53 AM,51.1,35.1,54,30.08,10.0,SSW,4.6,-,N/A,,Clear,200,2011-10-02 08:53:00
3:53 AM,48.2,33.8,58,30.13,10.0,Calm,Calm,-,N/A,,Clear,0,2011-10-02 09:53:00
4:53 AM,50.0,35.1,57,30.07,10.0,South,3.5,-,N/A,,Clear,180,2011-10-02 10:53:00
5:53 AM,46.9,35.1,63,30.09,10.0,ESE,8.1,-,N/A,,Clear,120,2011-10-02 11:53:00
6:53 AM,46.0,35.1,66,30.12,10.0,SE,6.9,-,N/A,,Clear,140,2011-10-02 12:53:00
7:53 AM,51.8,35.6,54,30.14,10.0,SSE,5.8,-,N/A,,Clear,150,2011-10-02 13:53:00
8:53 AM,57.2,37.4,48,30.14,10.0,SSE,8.1,-,N/A,,Clear,160,2011-10-02 14:53:00
9:53 AM,62.6,37.4,39,30.14,10.0,SSE,6.9,-,N/A,,Clear,150,2011-10-02 15:53:00
10:53 AM,69.1,37.0,31,30.08,10.0,South,10.4,-,N/A,,Clear,180,2011-10-02 16:53:00
11:53 AM,73.4,37.4,27,30.12,10.0,SSE,8.1,-,N/A,,Clear,150,2011-10-02 17:53:00
12:53 PM,78.1,37.0,23,30.02,10.0,SSE,11.5,-,N/A,,Clear,160,2011-10-02 18:53:00
1:53 PM,80.1,37.9,22,30.00,10.0,South,9.2,17.3,N/A,,Clear,170,2011-10-02 19:53:00
2:53 PM,82.0,36.0,19,30.00,10.0,South,11.5,-,N/A,,Clear,170,2011-10-02 20:53:00
3:53 PM,82.9,36.0,19,29.99,10.0,SE,12.7,-,N/A,,Clear,140,2011-10-02 21:53:00
4:53 PM,81.0,36.0,20,29.99,10.0,SE,15.0,-,N/A,,Clear,130,2011-10-02 22:53:00
5:53 PM,75.9,37.9,25,30.01,10.0,SE,10.4,-,N/A,,Clear,130,2011-10-02 23:53:00
6:53 PM,66.9,37.9,34,30.03,10.0,ESE,8.1,-,N/A,,Clear,110,2011-10-03 00:53:00
7:53 PM,63.0,37.9,40,30.04,10.0,ESE,4.6,-,N/A,,Clear,120,2011-10-03 01:53:00
8:53 PM,59.0,37.9,46,30.05,10.0,ESE,5.8,-,N/A,,Clear,120,2011-10-03 02:53:00
9:53 PM,59.0,37.9,46,30.04,10.0,SE,6.9,-,N/A,,Clear,140,2011-10-03 03:53:00
10:53 PM,55.4,37.4,51,30.07,10.0,Calm,Calm,-,N/A,,Clear,0,2011-10-03 04:53:00
11:53 PM,53.1,37.9,57,30.02,10.0,East,3.5,-,N/A,,Clear,100,2011-10-03 05:53:00